Regional Weather Roundup
Issued by NWS

Home | Current Version | Previous Version | Text Only | Print | Product List | Glossary On
Versions: 1 2 3 4 5 6 7 8 9 10 11 12 13 14 15 16 17 18 19 20 21 22 23 24 25 26 27 28 29 30 31 32 33 34 35 36 37 38 39 40 41 42 43 44 45 46 47 48 49 50
000
ASUS43 KFSD 301310
RWRSD

WEATHER ROUNDUP FOR SOUTH DAKOTA
NATIONAL WEATHER SERVICE SIOUX FALLS SD
800 AM CDT WED JUL 30 2014

NOTE: "FAIR" INDICATES FEW OR NO CLOUDS BELOW 12,000 FEET WITH NO
SIGNIFICANT WEATHER AND/OR OBSTRUCTIONS TO VISIBILITY.


SDZ001>005-009-010-012>017-301400-
NORTHWEST AND NORTH CENTRAL SOUTH DAKOTA

CITY           SKY/WX    TMP DP  RH WIND       PRES   REMARKS
BUFFALO          N/A     56  51  84 NW6       30.14R
FAITH            N/A     60  53  77 S9        30.16S
MOBRIDGE       MOSUNNY   63  57  81 E6        30.14R
$$

SDZ012>016-024>037-041>051-057-063-072>074-301400-
SOUTHWEST AND SOUTH CENTRAL SOUTH DAKOTA

CITY           SKY/WX    TMP DP  RH WIND       PRES   REMARKS
RAPID CTY ARPT SUNNY     61  56  83 NW7       30.20S
PIERRE         SUNNY     63  58  83 SE5       30.15R
CUSTER         SUNNY     58  46  64 NW6       30.32S
ELLSWORTH AFB  SUNNY     60  56  84 NW7       30.20R
PHILIP         SUNNY     57  51  80 CALM      30.18R
PINE RIDGE     MOSUNNY   53  51  93 CALM      30.24S
WINNER         FAIR      62  50  64 SW3       30.18S
$$

SDZ004>011-016>023-039-040-301400-
NORTHEAST SOUTH DAKOTA

CITY           SKY/WX    TMP DP  RH WIND       PRES   REMARKS
ABERDEEN       SUNNY     58  53  84 CALM      30.16S
WATERTOWN      SUNNY     56  52  86 CALM      30.17R
SISSETON         N/A     58  55  90 N3        30.14R
$$

SDZ017-020-022-023-036>040-048>070-301400-
SOUTHEAST SOUTH DAKOTA

CITY           SKY/WX    TMP DP  RH WIND       PRES   REMARKS
SIOUX FALLS    MOSUNNY   58  55  90 CALM      30.17R
HURON          SUNNY     60  56  86 CALM      30.16S
CHAMBERLAIN    MOSUNNY   61  54  78 CALM      30.17S
MITCHELL       SUNNY     58  55  90 CALM      30.17R
YANKTON        SUNNY     61  55  82 CALM      30.16S
$$

ABBREVIATIONS USED IN REMARKS
   TC - TEMPERATURE IN CELSIUS
  WCI - WIND CHILL INDEX
   HX - HEAT INDEX
  VSB - VISIBILITY




USA.gov is the U.S. government's official web portal to all federal, state and local government web resources and services.